Change the Weather History Date:

Sunday, February 16, 2014

  Actual Average Record
Temperature  
Mean Temperature 62 °F -  
Max Temperature 67 °F 65 °F - ()
Min Temperature 56 °F 50 °F - ()
Degree Days  
Heating Degree Days 4    
Growing Degree Days 12 (Base 50)    
Moisture  
Dew Point 53 °F    
Average Humidity 70    
Maximum Humidity 82    
Minimum Humidity 59    
Precipitation  
Precipitation 0.00 in 0.03 in - ()
Sea Level Pressure  
Sea Level Pressure 30.04 in    
Wind  
Wind Speed 10 mph ()    
Max Wind Speed 15 mph    
Max Gust Speed -    
Visibility 6.2 miles    
Events      
T = Trace of Precipitation, MM = Missing Value Source: Averaged Metar Reports

Daily Weather History Graph

Daily Weather History Graph

Search for Another Location

Airport or City:

Trip Planner

Search our weather history database for the weather conditions in past years. The results will help you decide how hot, cold, wet, or windy it might be!

Date:

Astronomy

Feb. 16, 2014 Rise Set
Actual Time 6:40 AM EET 5:48 PM EET
Civil Twilight 6:16 AM EET 6:12 PM EET
Nautical Twilight 5:47 AM EET 6:41 PM EET
Astronomical Twilight 5:19 AM EET 7:09 PM EET
Moon 7:16 PM EET (2/16) 7:08 AM EET (2/16)
Length of Visible Light 11h 56m
Length of Day
11h 07m
Full, 98% of the Moon is Illuminated
Feb 16
Full
Feb 22
Last Quarter
Mar 1
New
Mar 8
First Quarter
Mar 16
Full

Hourly Weather History & Observations

Time (EET) Temp. Dew Point Humidity Pressure Visibility Wind Dir Wind Speed Gust Speed Precip Events Conditions
12:00 AM 59.0 °F 48.2 °F 67% 29.95 in 6.2 mi NNW 15.0 mph - N/A   Scattered Clouds
1:00 AM 60.8 °F 50.0 °F 68% 29.95 in 6.2 mi NNW 13.8 mph - N/A   Scattered Clouds
2:00 AM 57 °F 52 °F 79% 29.95 in 6 mi NW 11.5 mph - -   Partly Cloudy
2:00 AM 57.2 °F 51.8 °F 82% 29.95 in 6.2 mi NW 11.5 mph - N/A   Scattered Clouds
3:00 AM 60.8 °F 51.8 °F 72% 29.95 in 6.2 mi NNW 11.5 mph - N/A   Scattered Clouds
4:00 AM 59.0 °F 51.8 °F 77% 29.95 in 6.2 mi NNW 15.0 mph - N/A   Scattered Clouds
5:00 AM 60 °F 51 °F 64% 29.95 in 6 mi NNW 12.7 mph - -   Partly Cloudy
5:00 AM 60.8 °F 51.8 °F 72% 29.95 in 6.2 mi NNW 12.7 mph - N/A   Scattered Clouds
6:00 AM 60.8 °F 51.8 °F 72% 29.95 in 6.2 mi NNW 11.5 mph - N/A   Scattered Clouds
7:00 AM 59.0 °F 51.8 °F 77% 29.98 in 6.2 mi NNW 11.5 mph - N/A   Scattered Clouds
8:00 AM 61 °F 51 °F 62% 30.02 in 6 mi NNW 13.8 mph - -   Partly Cloudy
8:00 AM 60.8 °F 51.8 °F 72% 30.01 in 6.2 mi NNW 13.8 mph - N/A   Scattered Clouds
9:00 AM 64.4 °F 53.6 °F 68% 30.04 in 6.2 mi North 8.1 mph - N/A   Scattered Clouds
10:00 AM 64.4 °F 53.6 °F 68% 30.04 in 6.2 mi North 11.5 mph - N/A   Scattered Clouds
11:00 AM 62 °F 55 °F 70% 30.07 in 6 mi NW 10.4 mph - -   Mostly Cloudy
11:00 AM 62.6 °F 55.4 °F 77% 30.06 in 6.2 mi NW 10.4 mph - N/A   Scattered Clouds
12:00 PM 64.4 °F 55.4 °F 73% 30.06 in 6.2 mi North 11.5 mph - N/A   Scattered Clouds
1:00 PM 66.2 °F 55.4 °F 68% 30.06 in 6.2 mi North 11.5 mph - N/A   Scattered Clouds
2:00 PM 67 °F 56 °F 59% 30.06 in 6 mi NNW 9.2 mph - -   Partly Cloudy
2:00 PM 68.0 °F 55.4 °F 64% 30.06 in 6.2 mi NNW 9.2 mph - N/A   Scattered Clouds
3:00 PM 66.2 °F 53.6 °F 64% 30.06 in 6.2 mi North 11.5 mph - N/A   Scattered Clouds
4:00 PM 64.4 °F 53.6 °F 68% 30.06 in 6.2 mi NNW 10.4 mph - N/A   Scattered Clouds
5:00 PM 63 °F 53 °F 63% 30.09 in 6 mi North 9.2 mph - -   Partly Cloudy
5:00 PM 62.6 °F 53.6 °F 72% 30.09 in 6.2 mi North 9.2 mph - N/A   Scattered Clouds
6:00 PM 62.6 °F 53.6 °F 72% 30.09 in 6.2 mi North 8.1 mph - N/A   Scattered Clouds
7:00 PM 60.8 °F 53.6 °F 77% 30.12 in 6.2 mi North 9.2 mph - N/A   Scattered Clouds
8:00 PM 62 °F 53 °F 63% 30.14 in 6 mi NNW 10.4 mph - -   Partly Cloudy
8:00 PM 62.6 °F 53.6 °F 72% 30.12 in 6.2 mi NNW 10.4 mph - N/A   Scattered Clouds
9:00 PM 60.8 °F 51.8 °F 72% 30.15 in 6.2 mi NNW 9.2 mph - N/A   Scattered Clouds
10:00 PM 60.8 °F 53.6 °F 77% 30.15 in 6.2 mi North 5.8 mph - N/A   Scattered Clouds
11:00 PM 61 °F 52 °F 64% 30.16 in 6 mi North 5.8 mph - -   Partly Cloudy
11:00 PM 60.8 °F 51.8 °F 72% 30.15 in 6.2 mi North 5.8 mph - N/A   Scattered Clouds